Location: Warszawa
(52.2500°N, 21.0000°E)
Time: 06:18:25
(UTC+02:00)

CUBEBUG 2 - Visible Passes

Search period start: 16 April 2024 00:00
Search period end: 26 April 2024 00:00
Orbit: 571 x 672 km, 97.8° (Epoch: 15 April)

Date Brightness Start Highest point End Pass type
(mag) Time Alt. Az. Time Alt. Az. Time Alt. Az.
16 Apr ? 01:44:28 10° NE 01:47:05 16° E 01:47:44 16° E visible
16 Apr ? 03:19:38 10° N 03:23:40 61° WNW 03:24:56 40° SW visible
17 Apr ? 02:01:41 10° NE 02:05:00 23° E 02:05:46 22° ESE visible
17 Apr ? 03:37:30 10° N 03:41:20 41° WNW 03:42:58 28° WSW visible
18 Apr ? 02:19:07 10° NNE 02:22:51 34° E 02:23:47 30° SE visible
18 Apr ? 03:55:26 10° N 03:58:59 29° WNW 04:00:59 19° WSW visible
19 Apr ? 02:36:40 10° NNE 02:40:39 50° E 02:41:48 38° SSE visible
19 Apr ? 04:13:27 10° NNW 04:16:32 21° WNW 04:19:00 13° WSW visible
20 Apr ? 02:54:18 10° NNE 02:58:23 76° ESE 02:59:48 40° S visible
20 Apr ? 04:31:38 10° NNW 04:34:04 16° WNW 04:36:30 10° W visible
21 Apr ? 01:37:13 10° NE 01:39:26 14° E 01:40:36 13° ESE visible
21 Apr ? 03:12:00 10° N 03:16:05 73° WNW 03:17:47 34° SSW visible
22 Apr ? 01:54:12 10° NE 01:57:18 20° E 01:58:34 18° ESE visible
22 Apr ? 03:29:46 10° N 03:33:43 49° WNW 03:35:46 25° SW visible
23 Apr ? 02:11:30 10° NNE 02:15:06 29° E 02:16:32 23° SE visible
23 Apr ? 03:47:36 10° N 03:51:19 34° WNW 03:53:44 18° WSW visible
24 Apr ? 02:28:56 10° NNE 02:32:51 43° E 02:34:30 29° SSE visible
24 Apr ? 04:05:31 10° N 04:08:51 24° WNW 04:11:42 13° WSW visible
25 Apr ? 02:46:29 10° NNE 02:50:34 64° ESE 02:52:27 31° S visible
25 Apr ? 04:23:32 10° NNW 04:26:20 18° WNW 04:29:09 10° WSW visible
